Hourly Data Report for September 22, 2017

All times are specified in Local Standard Time (LST). Add 1 hour to adjust for Daylight Saving Time where and when it is observed.

PORT ALBERNI (AUT)
BRITISH COLUMBIA

49°18'59.700" N
124°55'36.600" W
76.20 m
1036B06
71475
WQC

Related Data

No related data is available for this station

Download Data

Hourly Data (September 2017)
Hourly Data Report for September 22, 2017
Temp Definition
°C
Dew Point Temp Definition
°C
Rel Hum Definition
%
Wind Dir Definition
10's deg

Wind Spd Definition
km/h
Visibility Definition
km
Stn Press Definition
kPa
Hmdx Definition


Wind Chill Definition


Weather Definition


TIME
00:00 5.9 5.2 95 30 4   100.84     LegendNANA
01:00 5.2 4.8 97 32 2   100.87     LegendNANA
02:00 4.3 3.7 97 32 3   100.88     LegendNANA
03:00 4.7 4.3 97 31 5   100.88     LegendNANA
04:00 2.4 1.9 96 30 7   100.89     LegendNANA
05:00 2.9 2.5 98 32 3   100.91     LegendNANA
06:00 2.9 2.5 97 32 4   100.93     LegendNANA
07:00 4.7 4.4 98 32 3   100.99     LegendNANA
08:00 7.3 6.1 92 35 3   101.01     LegendNANA
09:00 10.1 6.6 79 2 2   100.98     LegendNANA
10:00 13.2 6.9 66 5 2   100.90     LegendNANA
11:00 16.2 6.1 51 36 4   100.87     LegendNANA
12:00 18.6 6.5 45 14 3   100.80     LegendNANA
13:00 19.6 5.3 39 20 5   100.75     LegendNANA
14:00 21.2 3.3 31 17 8   100.71     LegendNANA
15:00 21.5 4.7 33 17 9   100.67     LegendNANA
16:00 21.1 5.9 37 21 5   100.66     LegendNANA
17:00 19.4 8.0 48 18 5   100.64     LegendNANA
18:00 17.7 7.5 51 11 8   100.66     LegendNANA
19:00 16.4 7.5 56 10 10   100.64     LegendNANA
20:00 15.4 7.9 61 12 9   100.67     LegendNANA
21:00 13.9 9.2 73 12 9   100.71     LegendNANA
22:00 12.6 10.2 85 13 8   100.73     LegendNANA
23:00 12.7 9.8 82 13 9   100.76     LegendNANA

Notes on Data Quality.

Legend

  • E = Estimated
  • M = Missing
  • NA = Not Available
  • ‡ = Partner data that is not subject to review by the National Climate Archives
Date modified: